Time,TemperatureF,DewpointF,PressureIn,WindDirection,WindDirectionDegrees,WindSpeedMPH,WindSpeedGustMPH,Humidity,HourlyPrecipIn,Conditions,Clouds,dailyrainin,SoftwareType,DateUTC
2013-02-06 00:00:00,39.4,4.7,29.78,NE,51,0.0,0.0,23,0.00,,CLR,0.00,VWS V14.01,2013-02-06 05:00:00,
2013-02-06 00:01:00,39.2,7.2,29.78,NE,51,0.0,0.0,26,0.00,,CLR,0.00,VWS V14.01,2013-02-06 05:01:00,
2013-02-06 00:02:00,39.2,4.5,29.78,NE,51,0.0,0.0,23,0.00,,CLR,0.00,VWS V14.01,2013-02-06 05:02:00,
2013-02-06 00:07:00,39.4,7.4,29.78,NE,51,0.0,0.0,26,0.00,,CLR,0.00,VWS V14.01,2013-02-06 05:07:00,
2013-02-06 00:12:00,39.6,7.5,29.78,NE,51,0.0,0.0,26,0.00,,CLR,0.00,VWS V14.01,2013-02-06 05:12:00,
2013-02-06 00:17:00,39.4,7.4,29.78,NE,51,0.0,0.0,26,0.00,,CLR,0.00,VWS V14.01,2013-02-06 05:17:00,
2013-02-06 00:22:00,39.4,7.4,29.78,North,353,0.0,0.0,26,0.00,,CLR,0.00,VWS V14.01,2013-02-06 05:22:00,
2013-02-06 00:27:00,39.4,7.4,29.78,North,353,0.0,0.0,26,0.00,,CLR,0.00,VWS V14.01,2013-02-06 05:27:00,
2013-02-06 00:32:00,39.7,7.7,29.78,North,353,0.0,0.0,26,0.00,,CLR,0.00,VWS V14.01,2013-02-06 05:32:00,
2013-02-06 00:37:00,39.7,7.7,29.78,North,353,0.0,0.0,26,0.00,,CLR,0.00,VWS V14.01,2013-02-06 05:37:00,
2013-02-06 00:42:00,39.9,7.8,29.78,North,353,0.0,0.0,26,0.00,,CLR,0.00,VWS V14.01,2013-02-06 05:42:00,
2013-02-06 00:48:00,39.9,7.8,29.78,North,353,0.0,0.0,26,0.00,,CLR,0.00,VWS V14.01,2013-02-06 05:48:00,
2013-02-06 00:53:00,39.7,9.3,29.78,North,353,0.0,0.0,28,0.00,,CLR,0.00,VWS V14.01,2013-02-06 05:53:00,
2013-02-06 00:58:00,40.1,9.6,29.78,NW,323,0.0,0.0,28,0.00,,CLR,0.00,VWS V14.01,2013-02-06 05:58:00,
2013-02-06 01:03:00,40.3,9.8,29.78,North,0,2.7,2.7,28,0.00,,CLR,0.00,VWS V14.01,2013-02-06 06:03:00,
2013-02-06 01:08:00,40.3,9.8,29.78,WNW,294,0.0,0.0,28,0.00,,CLR,0.00,VWS V14.01,2013-02-06 06:08:00,
2013-02-06 01:13:00,40.1,10.4,29.78,South,175,0.0,0.0,29,0.00,,CLR,0.00,VWS V14.01,2013-02-06 06:13:00,
2013-02-06 01:18:00,40.1,10.4,29.78,North,353,0.0,0.0,29,0.00,,CLR,0.00,VWS V14.01,2013-02-06 06:18:00,
2013-02-06 01:23:00,40.1,10.4,29.78,NE,52,0.0,0.0,29,0.00,,CLR,0.00,VWS V14.01,2013-02-06 06:23:00,
2013-02-06 01:28:00,39.9,10.2,29.78,East,83,0.0,0.0,29,0.00,,CLR,0.00,VWS V14.01,2013-02-06 06:28:00,
2013-02-06 01:33:00,39.9,11.0,29.78,East,83,2.2,2.2,30,0.00,,CLR,0.00,VWS V14.01,2013-02-06 06:33:00,
2013-02-06 01:38:00,39.9,11.0,29.78,NE,51,2.7,2.7,30,0.00,,CLR,0.00,VWS V14.01,2013-02-06 06:38:00,
2013-02-06 01:43:00,39.7,10.9,29.78,East,95,3.1,3.1,30,0.00,,CLR,0.00,VWS V14.01,2013-02-06 06:43:00,
2013-02-06 01:48:00,39.7,10.9,29.78,East,95,2.2,2.2,30,0.00,,CLR,0.00,VWS V14.01,2013-02-06 06:48:00,
2013-02-06 01:54:00,39.7,10.9,29.78,East,95,0.0,0.0,30,0.00,,CLR,0.00,VWS V14.01,2013-02-06 06:54:00,
2013-02-06 01:59:00,39.4,10.5,29.78,East,95,2.2,2.2,30,0.00,,CLR,0.00,VWS V14.01,2013-02-06 06:59:00,
2013-02-06 02:04:00,39.4,10.5,29.78,NNE,24,0.0,0.0,30,0.00,,CLR,0.00,VWS V14.01,2013-02-06 07:04:00,
2013-02-06 02:09:00,39.4,10.5,29.78,NNE,24,0.0,0.0,30,0.00,,CLR,0.00,VWS V14.01,2013-02-06 07:09:00,
2013-02-06 02:14:00,39.2,10.4,29.78,NE,45,0.0,0.0,30,0.00,,CLR,0.00,VWS V14.01,2013-02-06 07:14:00,
2013-02-06 02:19:00,39.2,11.1,29.78,NE,46,0.0,0.0,31,0.00,,CLR,0.00,VWS V14.01,2013-02-06 07:19:00,
2013-02-06 02:24:00,39.2,11.1,29.78,SE,138,0.0,2.2,31,0.00,,CLR,0.00,VWS V14.01,2013-02-06 07:24:00,
2013-02-06 02:29:00,39.0,11.0,29.78,SE,138,0.0,0.0,31,0.00,,CLR,0.00,VWS V14.01,2013-02-06 07:29:00,
2013-02-06 02:34:00,38.8,11.5,29.78,NE,36,0.0,0.0,32,0.00,,CLR,0.00,VWS V14.01,2013-02-06 07:34:00,
2013-02-06 02:39:00,38.8,11.5,29.78,NE,36,0.0,0.0,32,0.00,,CLR,0.00,VWS V14.01,2013-02-06 07:39:00,
2013-02-06 02:45:00,38.7,11.4,29.78,NE,36,0.0,0.0,32,0.00,,CLR,0.00,VWS V14.01,2013-02-06 07:45:00,
2013-02-06 02:50:00,38.7,12.1,29.78,NNE,20,0.0,0.0,33,0.00,,CLR,0.00,VWS V14.01,2013-02-06 07:50:00,
2013-02-06 02:55:00,38.7,12.1,29.78,NNE,29,0.0,0.0,33,0.00,,CLR,0.00,VWS V14.01,2013-02-06 07:55:00,
2013-02-06 03:00:00,38.5,12.6,29.78,ENE,59,3.1,3.6,34,0.00,,CLR,0.00,VWS V14.01,2013-02-06 08:00:00,
2013-02-06 03:05:00,38.5,11.9,29.78,ENE,58,0.0,0.0,33,0.00,,CLR,0.00,VWS V14.01,2013-02-06 08:05:00,
2013-02-06 03:10:00,37.9,12.7,29.78,ENE,59,2.7,2.7,35,0.00,,CLR,0.00,VWS V14.01,2013-02-06 08:10:00,
2013-02-06 03:15:00,37.9,13.4,29.81,ENE,78,0.0,0.0,36,0.00,,CLR,0.00,VWS V14.01,2013-02-06 08:15:00,
2013-02-06 03:20:00,37.9,12.7,29.81,ENE,78,0.0,0.0,35,0.00,,CLR,0.00,VWS V14.01,2013-02-06 08:20:00,
2013-02-06 03:25:00,37.9,14.6,29.81,ENE,67,3.1,3.1,38,0.00,,CLR,0.00,VWS V14.01,2013-02-06 08:25:00,
2013-02-06 03:30:00,37.9,14.0,29.78,NNE,24,2.2,3.6,37,0.00,,CLR,0.00,VWS V14.01,2013-02-06 08:30:00,
2013-02-06 03:35:00,38.1,13.5,29.78,North,4,2.2,2.2,36,0.00,,CLR,0.00,VWS V14.01,2013-02-06 08:35:00,
2013-02-06 03:40:00,37.9,12.7,29.78,North,0,3.1,3.1,35,0.00,,CLR,0.00,VWS V14.01,2013-02-06 08:40:00,
2013-02-06 03:45:00,37.6,13.1,29.78,East,95,3.1,3.1,36,0.00,,CLR,0.00,VWS V14.01,2013-02-06 08:45:00,
2013-02-06 03:51:00,37.8,13.8,29.81,East,95,2.2,4.0,37,0.00,,CLR,0.00,VWS V14.01,2013-02-06 08:51:00,
2013-02-06 03:56:00,37.8,13.2,29.81,NE,46,3.1,3.1,36,0.00,,CLR,0.00,VWS V14.01,2013-02-06 08:56:00,
2013-02-06 04:01:00,37.6,13.1,29.81,NE,46,2.2,2.2,36,0.00,,CLR,0.00,VWS V14.01,2013-02-06 09:01:00,
2013-02-06 04:06:00,37.8,13.2,29.81,NE,46,2.7,2.7,36,0.00,,CLR,0.00,VWS V14.01,2013-02-06 09:06:00,
2013-02-06 04:11:00,37.6,12.4,29.81,NE,46,0.0,0.0,35,0.00,,CLR,0.00,VWS V14.01,2013-02-06 09:11:00,
2013-02-06 04:16:00,37.4,12.3,29.81,NE,46,2.7,2.7,35,0.00,,CLR,0.00,VWS V14.01,2013-02-06 09:16:00,
2013-02-06 04:21:00,37.4,11.6,29.81,North,357,0.0,0.0,34,0.00,,CLR,0.00,VWS V14.01,2013-02-06 09:21:00,
2013-02-06 04:26:00,37.4,10.9,29.81,SSE,151,2.7,2.7,33,0.00,,CLR,0.00,VWS V14.01,2013-02-06 09:26:00,
2013-02-06 04:31:00,37.4,10.9,29.81,East,90,2.7,2.7,33,0.00,,CLR,0.00,VWS V14.01,2013-02-06 09:31:00,
2013-02-06 04:37:00,37.4,10.2,29.81,NNE,13,0.0,0.0,32,0.00,,CLR,0.00,VWS V14.01,2013-02-06 09:37:00,
2013-02-06 04:42:00,37.2,10.1,29.81,NNE,13,0.0,0.0,32,0.00,,CLR,0.00,VWS V14.01,2013-02-06 09:42:00,
2013-02-06 04:47:00,37.0,9.9,29.81,ENE,78,0.0,0.0,32,0.00,,CLR,0.00,VWS V14.01,2013-02-06 09:47:00,
2013-02-06 04:52:00,37.0,9.2,29.81,NNW,344,0.0,0.0,31,0.00,,CLR,0.00,VWS V14.01,2013-02-06 09:52:00,
2013-02-06 04:57:00,37.0,9.2,29.81,North,353,2.2,2.2,31,0.00,,CLR,0.00,VWS V14.01,2013-02-06 09:57:00,
2013-02-06 05:02:00,37.0,9.2,29.81,North,353,0.0,0.0,31,0.00,,CLR,0.00,VWS V14.01,2013-02-06 10:02:00,
2013-02-06 05:07:00,36.7,8.9,29.81,North,1,0.0,0.0,31,0.00,,CLR,0.00,VWS V14.01,2013-02-06 10:07:00,
2013-02-06 05:12:00,36.5,8.8,29.81,North,1,0.0,0.0,31,0.00,,CLR,0.00,VWS V14.01,2013-02-06 10:12:00,
2013-02-06 05:17:00,36.3,8.6,29.81,North,0,0.0,0.0,31,0.00,,CLR,0.00,VWS V14.01,2013-02-06 10:17:00,
2013-02-06 05:22:00,36.3,8.6,29.81,NE,43,2.7,2.7,31,0.00,,CLR,0.00,VWS V14.01,2013-02-06 10:22:00,
2013-02-06 05:27:00,36.5,8.0,29.81,NE,43,2.7,3.6,30,0.00,,CLR,0.00,VWS V14.01,2013-02-06 10:27:00,
2013-02-06 05:33:00,36.5,8.0,29.84,NE,43,2.7,2.7,30,0.00,,CLR,0.00,VWS V14.01,2013-02-06 10:33:00,
2013-02-06 05:38:00,36.3,7.9,29.84,NE,43,0.0,0.0,30,0.00,,CLR,0.00,VWS V14.01,2013-02-06 10:38:00,
2013-02-06 05:43:00,36.3,7.9,29.84,North,9,2.7,2.7,30,0.00,,CLR,0.00,VWS V14.01,2013-02-06 10:43:00,
2013-02-06 05:48:00,36.5,8.0,29.84,North,357,0.0,0.0,30,0.00,,CLR,0.00,VWS V14.01,2013-02-06 10:48:00,
2013-02-06 05:53:00,36.5,8.0,29.84,North,357,2.2,2.2,30,0.00,,CLR,0.00,VWS V14.01,2013-02-06 10:53:00,
2013-02-06 05:58:00,36.5,8.0,29.84,North,357,2.2,2.2,30,0.00,,CLR,0.00,VWS V14.01,2013-02-06 10:58:00,
2013-02-06 06:03:00,36.1,7.7,29.84,NW,324,3.6,3.6,30,0.00,,CLR,0.00,VWS V14.01,2013-02-06 11:03:00,
2013-02-06 06:08:00,36.0,7.6,29.84,East,91,2.2,2.2,30,0.00,,CLR,0.00,VWS V14.01,2013-02-06 11:08:00,
2013-02-06 06:13:00,35.8,7.4,29.84,East,91,2.2,2.2,30,0.00,,CLR,0.00,VWS V14.01,2013-02-06 11:13:00,
2013-02-06 06:18:00,35.4,7.8,29.84,East,100,2.2,2.2,31,0.00,,CLR,0.00,VWS V14.01,2013-02-06 11:18:00,
2013-02-06 06:23:00,35.4,7.8,29.84,NNE,19,0.0,0.0,31,0.00,,CLR,0.00,VWS V14.01,2013-02-06 11:23:00,
2013-02-06 06:28:00,35.6,7.2,29.84,NNE,31,0.0,0.0,30,0.00,,CLR,0.00,VWS V14.01,2013-02-06 11:28:00,
2013-02-06 06:33:00,35.8,7.4,29.84,NNE,16,3.6,3.6,30,0.00,,CLR,0.00,VWS V14.01,2013-02-06 11:33:00,
2013-02-06 06:38:00,35.8,7.4,29.84,NNE,22,3.6,3.6,30,0.00,,CLR,0.00,VWS V14.01,2013-02-06 11:38:00,
2013-02-06 06:43:00,35.8,7.4,29.84,North,357,2.7,3.6,30,0.00,,CLR,0.00,VWS V14.01,2013-02-06 11:43:00,
2013-02-06 06:49:00,35.6,7.2,29.84,NE,36,3.6,4.0,30,0.00,,CLR,0.00,VWS V14.01,2013-02-06 11:49:00,
2013-02-06 06:54:00,35.6,7.2,29.84,NE,48,2.7,2.7,30,0.00,,CLR,0.00,VWS V14.01,2013-02-06 11:54:00,
2013-02-06 06:59:00,35.6,7.2,29.84,NE,48,3.1,3.1,30,0.00,,CLR,0.00,VWS V14.01,2013-02-06 11:59:00,
2013-02-06 07:04:00,35.2,7.7,29.84,NE,48,2.7,3.1,31,0.00,,CLR,0.00,VWS V14.01,2013-02-06 12:04:00,
2013-02-06 07:09:00,35.2,7.7,29.84,North,1,2.7,2.7,31,0.00,,CLR,0.00,VWS V14.01,2013-02-06 12:09:00,
2013-02-06 07:14:00,34.5,7.7,29.84,NNE,14,0.0,0.0,32,0.00,,CLR,0.00,VWS V14.01,2013-02-06 12:14:00,
2013-02-06 07:19:00,34.7,7.9,29.84,NE,45,3.1,3.1,32,0.00,,CLR,0.00,VWS V14.01,2013-02-06 12:19:00,
2013-02-06 07:24:00,34.7,7.9,29.84,NNE,31,3.1,3.1,32,0.00,,CLR,0.00,VWS V14.01,2013-02-06 12:24:00,
2013-02-06 07:30:00,34.7,7.9,29.87,NE,41,2.7,2.7,32,0.00,,CLR,0.00,VWS V14.01,2013-02-06 12:30:00,
2013-02-06 07:35:00,35.1,8.2,29.87,NE,41,3.6,3.6,32,0.00,,CLR,0.00,VWS V14.01,2013-02-06 12:35:00,
2013-02-06 07:40:00,35.1,8.2,29.87,North,7,3.1,3.1,32,0.00,,CLR,0.00,VWS V14.01,2013-02-06 12:40:00,
2013-02-06 07:45:00,35.2,7.7,29.87,NNE,18,3.6,3.6,31,0.00,,CLR,0.00,VWS V14.01,2013-02-06 12:45:00,
2013-02-06 07:50:00,35.2,7.7,29.87,NNE,27,2.7,2.7,31,0.00,,CLR,0.00,VWS V14.01,2013-02-06 12:50:00,
2013-02-06 07:55:00,35.2,7.7,29.87,NNE,27,2.7,2.7,31,0.00,,CLR,0.00,VWS V14.01,2013-02-06 12:55:00,
2013-02-06 08:00:00,35.2,7.7,29.87,East,88,2.7,2.7,31,0.00,,CLR,0.00,VWS V14.01,2013-02-06 13:00:00,
2013-02-06 08:05:00,35.4,7.8,29.87,NE,47,2.7,3.1,31,0.00,,CLR,0.00,VWS V14.01,2013-02-06 13:05:00,
2013-02-06 08:10:00,35.6,7.2,29.87,NE,47,3.1,3.1,30,0.00,,CLR,0.00,VWS V14.01,2013-02-06 13:10:00,
2013-02-06 08:15:00,36.0,7.6,29.87,North,353,2.2,2.7,30,0.00,,CLR,0.00,VWS V14.01,2013-02-06 13:15:00,
2013-02-06 08:21:00,36.7,7.4,29.87,North,6,2.2,2.2,29,0.00,,CLR,0.00,VWS V14.01,2013-02-06 13:21:00,
2013-02-06 08:26:00,36.7,7.4,29.87,North,6,0.0,0.0,29,0.00,,CLR,0.00,VWS V14.01,2013-02-06 13:26:00,
2013-02-06 08:31:00,36.7,7.4,29.90,NW,317,0.0,0.0,29,0.00,,CLR,0.00,VWS V14.01,2013-02-06 13:31:00,
2013-02-06 08:36:00,36.9,6.0,29.90,NNW,345,0.0,0.0,27,0.00,,CLR,0.00,VWS V14.01,2013-02-06 13:36:00,
2013-02-06 08:41:00,37.2,3.8,29.90,WNW,298,0.0,0.0,24,0.00,,CLR,0.00,VWS V14.01,2013-02-06 13:41:00,
2013-02-06 08:46:00,37.8,4.2,29.90,North,357,0.0,0.0,24,0.00,,CLR,0.00,VWS V14.01,2013-02-06 13:46:00,
2013-02-06 08:51:00,37.8,4.2,29.90,North,357,0.0,0.0,24,0.00,,CLR,0.00,VWS V14.01,2013-02-06 13:51:00,
2013-02-06 08:57:00,39.9,5.1,29.90,North,357,0.0,0.0,23,0.00,,CLR,0.00,VWS V14.01,2013-02-06 13:57:00,
2013-02-06 09:02:00,40.5,5.6,29.90,North,357,0.0,0.0,23,0.00,,CLR,0.00,VWS V14.01,2013-02-06 14:02:00,
2013-02-06 09:07:00,41.5,6.5,29.90,SE,146,0.0,0.0,23,0.00,,CLR,0.00,VWS V14.01,2013-02-06 14:07:00,
2013-02-06 09:12:00,41.7,4.7,29.90,SE,146,2.7,2.7,21,0.00,,CLR,0.00,VWS V14.01,2013-02-06 14:12:00,
2013-02-06 09:17:00,42.4,5.3,29.90,SE,146,0.0,0.0,21,0.00,,CLR,0.00,VWS V14.01,2013-02-06 14:17:00,
2013-02-06 09:22:00,42.4,5.3,29.90,SE,146,0.0,0.0,21,0.00,,CLR,0.00,VWS V14.01,2013-02-06 14:22:00,
2013-02-06 09:27:00,43.3,5.0,29.90,South,185,2.7,2.7,20,0.00,,CLR,0.00,VWS V14.01,2013-02-06 14:27:00,
2013-02-06 09:32:00,43.5,5.1,29.90,WNW,297,0.0,0.0,20,0.00,,CLR,0.00,VWS V14.01,2013-02-06 14:32:00,
2013-02-06 09:37:00,44.2,5.7,29.90,ESE,110,0.0,2.2,20,0.00,,CLR,0.00,VWS V14.01,2013-02-06 14:37:00,
2013-02-06 09:42:00,45.3,6.6,29.90,SE,133,0.0,0.0,20,0.00,,CLR,0.00,VWS V14.01,2013-02-06 14:42:00,
2013-02-06 09:47:00,46.2,7.4,29.90,SSE,164,0.0,0.0,20,0.00,,CLR,0.00,VWS V14.01,2013-02-06 14:47:00,
2013-02-06 09:52:00,46.2,7.4,29.90,South,182,2.2,2.2,20,0.00,,CLR,0.00,VWS V14.01,2013-02-06 14:52:00,
2013-02-06 09:57:00,47.3,7.1,29.90,West,264,0.0,0.0,19,0.00,,CLR,0.00,VWS V14.01,2013-02-06 14:57:00,
2013-02-06 10:02:00,47.7,7.4,29.93,SSE,147,0.0,0.0,19,0.00,,CLR,0.00,VWS V14.01,2013-02-06 15:02:00,
2013-02-06 10:07:00,48.6,8.2,29.93,NNW,337,0.0,0.0,19,0.00,,CLR,0.00,VWS V14.01,2013-02-06 15:07:00,
2013-02-06 10:12:00,49.1,8.6,29.93,ENE,67,0.0,0.0,19,0.00,,CLR,0.00,VWS V14.01,2013-02-06 15:12:00,
2013-02-06 10:18:00,50.5,9.8,29.93,NNE,22,2.2,3.6,19,0.00,,CLR,0.00,VWS V14.01,2013-02-06 15:18:00,
2013-02-06 10:23:00,52.5,10.2,29.93,WNW,298,0.0,2.2,18,0.00,,CLR,0.00,VWS V14.01,2013-02-06 15:23:00,
2013-02-06 10:28:00,53.4,11.0,29.93,SW,236,4.0,4.0,18,0.00,,CLR,0.00,VWS V14.01,2013-02-06 15:28:00,
2013-02-06 10:33:00,54.9,12.2,29.93,NNW,348,0.0,2.7,18,0.00,,CLR,0.00,VWS V14.01,2013-02-06 15:33:00,
2013-02-06 10:38:00,56.7,12.4,29.93,SW,236,0.0,0.0,17,0.00,,CLR,0.00,VWS V14.01,2013-02-06 15:38:00,
2013-02-06 10:43:00,57.7,13.2,29.93,West,266,3.6,3.6,17,0.00,,CLR,0.00,VWS V14.01,2013-02-06 15:43:00,
2013-02-06 10:48:00,57.4,12.9,29.93,NE,44,0.0,0.0,17,0.00,,CLR,0.00,VWS V14.01,2013-02-06 15:48:00,
2013-02-06 10:53:00,57.6,13.1,29.93,WNW,286,0.0,0.0,17,0.00,,CLR,0.00,VWS V14.01,2013-02-06 15:53:00,
2013-02-06 10:58:00,58.1,13.5,29.93,NNE,26,5.8,5.8,17,0.00,,CLR,0.00,VWS V14.01,2013-02-06 15:58:00,
2013-02-06 11:03:00,59.2,14.4,29.93,West,262,0.0,0.0,17,0.00,,CLR,0.00,VWS V14.01,2013-02-06 16:03:00,
2013-02-06 11:08:00,59.5,17.3,29.93,NNW,334,2.7,4.9,19,0.00,,CLR,0.00,VWS V14.01,2013-02-06 16:08:00,
2013-02-06 11:14:00,61.3,18.8,29.93,WSW,242,3.1,4.0,19,0.00,,CLR,0.00,VWS V14.01,2013-02-06 16:14:00,
2013-02-06 11:19:00,61.9,19.2,29.93,WSW,256,4.0,4.0,19,0.00,,CLR,0.00,VWS V14.01,2013-02-06 16:19:00,
2013-02-06 11:24:00,63.1,19.0,29.93,South,186,0.0,0.0,18,0.00,,CLR,0.00,VWS V14.01,2013-02-06 16:24:00,
2013-02-06 11:29:00,63.7,19.4,29.93,SSW,213,3.6,4.0,18,0.00,,CLR,0.00,VWS V14.01,2013-02-06 16:29:00,
2013-02-06 11:34:00,64.0,19.7,29.93,South,190,3.1,3.1,18,0.00,,CLR,0.00,VWS V14.01,2013-02-06 16:34:00,
2013-02-06 11:39:00,64.6,20.1,29.93,SSW,209,3.1,3.1,18,0.00,,CLR,0.00,VWS V14.01,2013-02-06 16:39:00,
2013-02-06 11:44:00,64.6,20.1,29.93,SSW,210,3.6,3.6,18,0.00,,CLR,0.00,VWS V14.01,2013-02-06 16:44:00,
2013-02-06 11:49:00,65.5,20.9,29.93,East,95,2.7,2.7,18,0.00,,CLR,0.00,VWS V14.01,2013-02-06 16:49:00,
2013-02-06 11:54:00,66.0,21.3,29.93,NW,309,3.6,3.6,18,0.00,,CLR,0.00,VWS V14.01,2013-02-06 16:54:00,
2013-02-06 12:00:00,66.2,20.1,29.93,West,275,2.2,3.6,17,0.00,,CLR,0.00,VWS V14.01,2013-02-06 17:00:00,
2013-02-06 12:05:00,66.0,21.3,29.93,WSW,251,2.7,3.1,18,0.00,,CLR,0.00,VWS V14.01,2013-02-06 17:05:00,
2013-02-06 12:10:00,66.0,21.3,29.93,NW,309,4.0,4.0,18,0.00,,CLR,0.00,VWS V14.01,2013-02-06 17:10:00,
2013-02-06 12:15:00,65.8,21.2,29.93,WNW,287,0.0,0.0,18,0.00,,CLR,0.00,VWS V14.01,2013-02-06 17:15:00,
2013-02-06 12:20:00,65.8,21.2,29.93,NW,311,0.0,0.0,18,0.00,,CLR,0.00,VWS V14.01,2013-02-06 17:20:00,
2013-02-06 12:25:00,66.6,20.4,29.93,West,274,4.9,4.9,17,0.00,,CLR,0.00,VWS V14.01,2013-02-06 17:25:00,
2013-02-06 12:30:00,66.7,20.6,29.93,North,0,2.7,2.7,17,0.00,,CLR,0.00,VWS V14.01,2013-02-06 17:30:00,
2013-02-06 12:35:00,66.7,20.6,29.93,South,188,2.7,3.1,17,0.00,,CLR,0.00,VWS V14.01,2013-02-06 17:35:00,
2013-02-06 12:40:00,68.0,21.6,29.93,SW,218,3.6,3.6,17,0.00,,CLR,0.00,VWS V14.01,2013-02-06 17:40:00,
2013-02-06 12:45:00,68.2,21.7,29.93,SSW,207,4.0,4.0,17,0.00,,CLR,0.00,VWS V14.01,2013-02-06 17:45:00,
2013-02-06 12:50:00,69.3,22.6,29.93,South,188,4.0,4.0,17,0.00,,CLR,0.00,VWS V14.01,2013-02-06 17:50:00,
2013-02-06 12:56:00,69.1,22.5,29.93,South,188,4.0,4.0,17,0.00,,CLR,0.00,VWS V14.01,2013-02-06 17:56:00,
2013-02-06 13:01:00,68.0,21.6,29.93,NNE,14,2.2,4.0,17,0.00,,CLR,0.00,VWS V14.01,2013-02-06 18:01:00,
2013-02-06 13:06:00,68.4,21.9,29.90,WNW,290,4.0,4.9,17,0.00,,CLR,0.00,VWS V14.01,2013-02-06 18:06:00,
2013-02-06 13:11:00,67.6,21.3,29.90,North,357,6.3,6.3,17,0.00,,CLR,0.00,VWS V14.01,2013-02-06 18:11:00,
2013-02-06 13:16:00,68.7,22.2,29.90,NE,39,0.0,4.0,17,0.00,,CLR,0.00,VWS V14.01,2013-02-06 18:16:00,
2013-02-06 13:21:00,69.4,22.8,29.90,WNW,284,2.2,4.9,17,0.00,,CLR,0.00,VWS V14.01,2013-02-06 18:21:00,
2013-02-06 13:26:00,69.4,22.8,29.90,WSW,239,0.0,0.0,17,0.00,,CLR,0.00,VWS V14.01,2013-02-06 18:26:00,
2013-02-06 13:31:00,70.3,23.5,29.90,SSE,167,2.7,2.7,17,0.00,,CLR,0.00,VWS V14.01,2013-02-06 18:31:00,
2013-02-06 13:36:00,70.5,23.6,29.90,SSW,206,0.0,0.0,17,0.00,,CLR,0.00,VWS V14.01,2013-02-06 18:36:00,
2013-02-06 13:41:00,70.9,23.9,29.90,WSW,237,4.9,4.9,17,0.00,,CLR,0.00,VWS V14.01,2013-02-06 18:41:00,
2013-02-06 13:46:00,70.9,23.9,29.90,WSW,240,4.9,4.9,17,0.00,,CLR,0.00,VWS V14.01,2013-02-06 18:46:00,
2013-02-06 13:52:00,70.5,23.6,29.90,NW,320,3.6,3.6,17,0.00,,CLR,0.00,VWS V14.01,2013-02-06 18:52:00,
2013-02-06 13:57:00,71.2,24.2,29.90,WNW,296,3.6,6.3,17,0.00,,CLR,0.00,VWS V14.01,2013-02-06 18:57:00,
2013-02-06 14:02:00,70.9,23.9,29.90,WSW,250,2.7,2.7,17,0.00,,CLR,0.00,VWS V14.01,2013-02-06 19:02:00,
2013-02-06 14:07:00,71.2,24.2,29.90,NE,41,4.0,4.0,17,0.00,,CLR,0.00,VWS V14.01,2013-02-06 19:07:00,
2013-02-06 14:12:00,71.2,24.2,29.90,SSE,151,6.3,6.3,17,0.00,,CLR,0.00,VWS V14.01,2013-02-06 19:12:00,
2013-02-06 14:17:00,71.6,23.1,29.90,WSW,252,3.1,3.1,16,0.00,,CLR,0.00,VWS V14.01,2013-02-06 19:17:00,
2013-02-06 14:22:00,72.0,23.4,29.90,WNW,287,4.0,4.0,16,0.00,,CLR,0.00,VWS V14.01,2013-02-06 19:22:00,
2013-02-06 14:27:00,72.5,23.8,29.90,WNW,290,0.0,0.0,16,0.00,,CLR,0.00,VWS V14.01,2013-02-06 19:27:00,
2013-02-06 14:33:00,72.5,23.8,29.90,SSW,194,5.8,5.8,16,0.00,,CLR,0.00,VWS V14.01,2013-02-06 19:33:00,
2013-02-06 14:38:00,72.5,23.8,29.90,WNW,298,3.6,3.6,16,0.00,,CLR,0.00,VWS V14.01,2013-02-06 19:38:00,
2013-02-06 14:43:00,73.4,24.5,29.90,SSE,154,4.0,6.3,16,0.00,,CLR,0.00,VWS V14.01,2013-02-06 19:43:00,
2013-02-06 14:48:00,73.8,24.8,29.90,SW,226,4.9,4.9,16,0.00,,CLR,0.00,VWS V14.01,2013-02-06 19:48:00,
2013-02-06 14:53:00,73.4,24.5,29.90,NE,49,3.6,3.6,16,0.00,,CLR,0.00,VWS V14.01,2013-02-06 19:53:00,
2013-02-06 14:58:00,71.8,23.2,29.90,SSE,167,2.7,2.7,16,0.00,,CLR,0.00,VWS V14.01,2013-02-06 19:58:00,
2013-02-06 15:03:00,72.1,23.5,29.90,West,271,3.1,3.1,16,0.00,,CLR,0.00,VWS V14.01,2013-02-06 20:03:00,
2013-02-06 15:08:00,72.9,24.1,29.90,NNE,27,2.7,3.1,16,0.00,,CLR,0.00,VWS V14.01,2013-02-06 20:08:00,
2013-02-06 15:13:00,72.7,23.9,29.90,SE,134,2.7,2.7,16,0.00,,CLR,0.00,VWS V14.01,2013-02-06 20:13:00,
2013-02-06 15:18:00,72.0,23.4,29.90,South,185,2.7,2.7,16,0.00,,CLR,0.00,VWS V14.01,2013-02-06 20:18:00,
2013-02-06 15:24:00,71.6,23.1,29.90,SSW,212,5.4,5.4,16,0.00,,CLR,0.00,VWS V14.01,2013-02-06 20:24:00,
2013-02-06 15:29:00,71.2,24.2,29.90,WSW,239,6.3,6.3,17,0.00,,CLR,0.00,VWS V14.01,2013-02-06 20:29:00,
2013-02-06 15:34:00,72.0,23.4,29.90,West,281,2.7,2.7,16,0.00,,CLR,0.00,VWS V14.01,2013-02-06 20:34:00,
2013-02-06 15:39:00,72.0,23.4,29.90,SW,216,4.9,5.4,16,0.00,,CLR,0.00,VWS V14.01,2013-02-06 20:39:00,
2013-02-06 15:44:00,70.0,23.2,29.90,SSE,167,3.6,3.6,17,0.00,,CLR,0.00,VWS V14.01,2013-02-06 20:44:00,
2013-02-06 15:49:00,67.3,21.0,29.90,West,273,3.1,3.6,17,0.00,,CLR,0.00,VWS V14.01,2013-02-06 20:49:00,
2013-02-06 15:54:00,64.6,20.1,29.90,SSE,152,4.0,4.0,18,0.00,,CLR,0.00,VWS V14.01,2013-02-06 20:54:00,
2013-02-06 15:59:00,63.0,18.8,29.90,North,357,2.2,2.7,18,0.00,,CLR,0.00,VWS V14.01,2013-02-06 20:59:00,
2013-02-06 16:05:00,64.0,19.7,29.90,NNE,16,2.7,2.7,18,0.00,,CLR,0.00,VWS V14.01,2013-02-06 21:05:00,
2013-02-06 16:10:00,64.0,19.7,29.90,North,0,2.2,2.2,18,0.00,,CLR,0.00,VWS V14.01,2013-02-06 21:10:00,
2013-02-06 16:15:00,64.8,20.3,29.90,South,183,3.1,3.1,18,0.00,,CLR,0.00,VWS V14.01,2013-02-06 21:15:00,
2013-02-06 16:20:00,64.4,20.0,29.90,WNW,290,3.6,3.6,18,0.00,,CLR,0.00,VWS V14.01,2013-02-06 21:20:00,
2013-02-06 16:25:00,65.3,20.7,29.90,West,281,3.1,3.1,18,0.00,,CLR,0.00,VWS V14.01,2013-02-06 21:25:00,
2013-02-06 16:30:00,65.3,20.7,29.90,West,266,3.1,3.1,18,0.00,,CLR,0.00,VWS V14.01,2013-02-06 21:30:00,
2013-02-06 16:35:00,66.6,20.4,29.90,North,3,2.2,2.2,17,0.00,,CLR,0.00,VWS V14.01,2013-02-06 21:35:00,
2013-02-06 16:40:00,66.9,20.7,29.90,North,353,2.2,2.2,17,0.00,,CLR,0.00,VWS V14.01,2013-02-06 21:40:00,
2013-02-06 16:45:00,66.4,20.3,29.90,SW,217,0.0,0.0,17,0.00,,CLR,0.00,VWS V14.01,2013-02-06 21:45:00,
2013-02-06 16:50:00,64.0,19.7,29.90,SW,225,0.0,0.0,18,0.00,,CLR,0.00,VWS V14.01,2013-02-06 21:50:00,
2013-02-06 16:56:00,61.2,18.6,29.90,NNW,330,3.6,3.6,19,0.00,,CLR,0.00,VWS V14.01,2013-02-06 21:56:00,
2013-02-06 17:01:00,61.2,18.6,29.93,West,276,0.0,0.0,19,0.00,,CLR,0.00,VWS V14.01,2013-02-06 22:01:00,
2013-02-06 17:06:00,60.8,18.3,29.93,SW,236,2.7,2.7,19,0.00,,CLR,0.00,VWS V14.01,2013-02-06 22:06:00,
2013-02-06 17:11:00,60.6,18.2,29.93,NE,39,2.7,2.7,19,0.00,,CLR,0.00,VWS V14.01,2013-02-06 22:11:00,
2013-02-06 17:16:00,60.6,18.2,29.93,NNW,329,0.0,0.0,19,0.00,,CLR,0.00,VWS V14.01,2013-02-06 22:16:00,
2013-02-06 17:21:00,59.5,17.3,29.93,NNW,329,0.0,0.0,19,0.00,,CLR,0.00,VWS V14.01,2013-02-06 22:21:00,
2013-02-06 17:26:00,59.5,17.3,29.93,WNW,283,2.7,2.7,19,0.00,,CLR,0.00,VWS V14.01,2013-02-06 22:26:00,
2013-02-06 17:31:00,57.4,12.9,29.90,NNE,12,3.1,3.1,17,0.00,,CLR,0.00,VWS V14.01,2013-02-06 22:31:00,
2013-02-06 17:36:00,56.8,12.5,29.90,NNE,12,3.1,3.1,17,0.00,,CLR,0.00,VWS V14.01,2013-02-06 22:36:00,
2013-02-06 17:41:00,56.8,12.5,29.90,NNE,12,0.0,0.0,17,0.00,,CLR,0.00,VWS V14.01,2013-02-06 22:41:00,
2013-02-06 17:46:00,56.8,12.5,29.90,NNE,12,0.0,0.0,17,0.00,,CLR,0.00,VWS V14.01,2013-02-06 22:46:00,
2013-02-06 17:51:00,51.8,9.7,29.90,NNE,12,0.0,0.0,18,0.00,,CLR,0.00,VWS V14.01,2013-02-06 22:51:00,
2013-02-06 17:57:00,51.1,10.3,29.90,NNE,12,0.0,0.0,19,0.00,,CLR,0.00,VWS V14.01,2013-02-06 22:57:00,
2013-02-06 18:02:00,50.5,9.8,29.93,NNE,12,0.0,0.0,19,0.00,,CLR,0.00,VWS V14.01,2013-02-06 23:02:00,
2013-02-06 18:07:00,50.5,9.8,29.93,NNE,12,0.0,0.0,19,0.00,,CLR,0.00,VWS V14.01,2013-02-06 23:07:00,
2013-02-06 18:12:00,50.5,9.8,29.93,NNE,12,0.0,0.0,19,0.00,,CLR,0.00,VWS V14.01,2013-02-06 23:12:00,
2013-02-06 18:17:00,48.7,8.3,29.93,NNE,12,3.1,3.1,19,0.00,,CLR,0.00,VWS V14.01,2013-02-06 23:17:00,
2013-02-06 18:22:00,48.6,8.2,29.93,NNE,12,2.2,2.2,19,0.00,,CLR,0.00,VWS V14.01,2013-02-06 23:22:00,
2013-02-06 18:27:00,48.4,8.0,29.93,NE,39,0.0,3.1,19,0.00,,CLR,0.00,VWS V14.01,2013-02-06 23:27:00,
2013-02-06 18:32:00,48.2,7.9,29.93,NE,39,2.2,3.1,19,0.00,,CLR,0.00,VWS V14.01,2013-02-06 23:32:00,
2013-02-06 18:37:00,48.0,7.7,29.93,NE,39,2.2,2.2,19,0.00,,CLR,0.00,VWS V14.01,2013-02-06 23:37:00,
2013-02-06 18:42:00,47.5,7.3,29.93,NE,39,0.0,2.7,19,0.00,,CLR,0.00,VWS V14.01,2013-02-06 23:42:00,
2013-02-06 18:47:00,47.5,7.3,29.93,NE,39,2.2,2.2,19,0.00,,CLR,0.00,VWS V14.01,2013-02-06 23:47:00,
2013-02-06 18:52:00,47.3,7.1,29.90,NE,39,0.0,0.0,19,0.00,,CLR,0.00,VWS V14.01,2013-02-06 23:52:00,
2013-02-06 18:57:00,47.3,7.1,29.90,NE,39,0.0,0.0,19,0.00,,CLR,0.00,VWS V14.01,2013-02-06 23:57:00,
2013-02-06 19:02:00,47.3,7.1,29.93,NE,39,0.0,0.0,19,0.00,,CLR,0.00,VWS V14.01,2013-02-07 00:02:00,
2013-02-06 19:07:00,46.9,6.8,29.93,NE,39,0.0,0.0,19,0.00,,CLR,0.00,VWS V14.01,2013-02-07 00:07:00,
2013-02-06 19:12:00,46.6,6.5,29.93,NE,39,2.2,2.2,19,0.00,,CLR,0.00,VWS V14.01,2013-02-07 00:12:00,
2013-02-06 19:17:00,46.2,7.4,29.93,NE,39,0.0,0.0,20,0.00,,CLR,0.00,VWS V14.01,2013-02-07 00:17:00,
2013-02-06 19:22:00,46.2,7.4,29.93,NE,39,0.0,0.0,20,0.00,,CLR,0.00,VWS V14.01,2013-02-07 00:22:00,
2013-02-06 19:27:00,45.3,6.6,29.93,NE,39,0.0,0.0,20,0.00,,CLR,0.00,VWS V14.01,2013-02-07 00:27:00,
2013-02-06 19:33:00,45.0,6.3,29.93,NE,40,0.0,0.0,20,0.00,,CLR,0.00,VWS V14.01,2013-02-07 00:33:00,
2013-02-06 19:38:00,45.0,6.3,29.93,NE,40,0.0,0.0,20,0.00,,CLR,0.00,VWS V14.01,2013-02-07 00:38:00,
2013-02-06 19:43:00,44.2,5.7,29.93,NE,40,0.0,0.0,20,0.00,,CLR,0.00,VWS V14.01,2013-02-07 00:43:00,
2013-02-06 19:48:00,44.1,5.6,29.93,NE,40,0.0,0.0,20,0.00,,CLR,0.00,VWS V14.01,2013-02-07 00:48:00,
2013-02-06 19:53:00,43.7,5.3,29.93,NE,40,0.0,0.0,20,0.00,,CLR,0.00,VWS V14.01,2013-02-07 00:53:00,
2013-02-06 19:58:00,43.5,5.1,29.93,NE,40,0.0,0.0,20,0.00,,CLR,0.00,VWS V14.01,2013-02-07 00:58:00,
2013-02-06 20:03:00,43.5,5.1,29.93,NE,40,0.0,0.0,20,0.00,,CLR,0.00,VWS V14.01,2013-02-07 01:03:00,
2013-02-06 20:08:00,43.2,4.8,29.93,NE,40,0.0,0.0,20,0.00,,CLR,0.00,VWS V14.01,2013-02-07 01:08:00,
2013-02-06 20:13:00,43.2,4.8,29.93,NE,40,0.0,0.0,20,0.00,,CLR,0.00,VWS V14.01,2013-02-07 01:13:00,
2013-02-06 20:19:00,42.6,5.4,29.93,NE,40,0.0,0.0,21,0.00,,CLR,0.00,VWS V14.01,2013-02-07 01:19:00,
2013-02-06 20:24:00,42.3,5.1,29.93,NE,40,0.0,0.0,21,0.00,,CLR,0.00,VWS V14.01,2013-02-07 01:24:00,
2013-02-06 20:29:00,42.3,5.1,29.93,NE,40,0.0,0.0,21,0.00,,CLR,0.00,VWS V14.01,2013-02-07 01:29:00,
2013-02-06 20:34:00,41.7,4.7,29.93,NE,40,0.0,0.0,21,0.00,,CLR,0.00,VWS V14.01,2013-02-07 01:34:00,
2013-02-06 20:39:00,41.7,4.7,29.93,NE,40,0.0,0.0,21,0.00,,CLR,0.00,VWS V14.01,2013-02-07 01:39:00,
2013-02-06 20:44:00,41.4,4.4,29.93,NE,40,0.0,0.0,21,0.00,,CLR,0.00,VWS V14.01,2013-02-07 01:44:00,
2013-02-06 20:49:00,41.4,4.4,29.93,NE,40,0.0,0.0,21,0.00,,CLR,0.00,VWS V14.01,2013-02-07 01:49:00,
2013-02-06 20:55:00,41.0,4.1,29.93,NE,40,0.0,0.0,21,0.00,,CLR,0.00,VWS V14.01,2013-02-07 01:55:00,
2013-02-06 21:00:00,40.6,3.8,29.93,NE,40,0.0,0.0,21,0.00,,CLR,0.00,VWS V14.01,2013-02-07 02:00:00,
2013-02-06 21:05:00,40.5,3.6,29.96,NE,40,0.0,0.0,21,0.00,,CLR,0.00,VWS V14.01,2013-02-07 02:05:00,
2013-02-06 21:10:00,40.5,3.6,29.96,NE,40,0.0,0.0,21,0.00,,CLR,0.00,VWS V14.01,2013-02-07 02:10:00,
2013-02-06 21:15:00,41.0,4.1,29.96,NE,40,2.2,2.2,21,0.00,,CLR,0.00,VWS V14.01,2013-02-07 02:15:00,
2013-02-06 21:20:00,41.0,4.1,29.96,NE,40,0.0,0.0,21,0.00,,CLR,0.00,VWS V14.01,2013-02-07 02:20:00,
2013-02-06 21:25:00,40.8,3.9,29.96,NE,40,0.0,0.0,21,0.00,,CLR,0.00,VWS V14.01,2013-02-07 02:25:00,
2013-02-06 21:30:00,40.5,3.6,29.96,NE,40,0.0,0.0,21,0.00,,CLR,0.00,VWS V14.01,2013-02-07 02:30:00,
2013-02-06 21:36:00,40.5,3.6,29.96,NE,40,0.0,2.7,21,0.00,,CLR,0.00,VWS V14.01,2013-02-07 02:36:00,
2013-02-06 21:41:00,40.1,3.3,29.96,NE,40,0.0,0.0,21,0.00,,CLR,0.00,VWS V14.01,2013-02-07 02:41:00,
2013-02-06 21:46:00,40.3,3.5,29.96,NE,40,0.0,0.0,21,0.00,,CLR,0.00,VWS V14.01,2013-02-07 02:46:00,
2013-02-06 21:51:00,40.5,3.6,29.96,NE,40,0.0,0.0,21,0.00,,CLR,0.00,VWS V14.01,2013-02-07 02:51:00,
2013-02-06 21:56:00,40.6,3.8,29.96,NE,40,0.0,2.7,21,0.00,,CLR,0.00,VWS V14.01,2013-02-07 02:56:00,
2013-02-06 22:01:00,40.6,3.8,29.96,NE,40,0.0,0.0,21,0.00,,CLR,0.00,VWS V14.01,2013-02-07 03:01:00,
2013-02-06 22:07:00,41.7,4.7,29.96,NE,40,0.0,0.0,21,0.00,,CLR,0.00,VWS V14.01,2013-02-07 03:07:00,
2013-02-06 22:12:00,41.9,4.8,29.96,NE,40,0.0,0.0,21,0.00,,CLR,0.00,VWS V14.01,2013-02-07 03:12:00,
2013-02-06 22:17:00,41.7,4.7,29.96,North,0,2.7,2.7,21,0.00,,CLR,0.00,VWS V14.01,2013-02-07 03:17:00,
2013-02-06 22:22:00,41.7,4.7,29.96,North,0,2.7,2.7,21,0.00,,CLR,0.00,VWS V14.01,2013-02-07 03:22:00,
2013-02-06 22:27:00,41.7,4.7,29.96,North,0,3.1,3.1,21,0.00,,CLR,0.00,VWS V14.01,2013-02-07 03:27:00,
2013-02-06 22:32:00,41.5,4.5,29.96,NNE,12,2.2,2.2,21,0.00,,CLR,0.00,VWS V14.01,2013-02-07 03:32:00,
2013-02-06 22:37:00,41.7,4.7,29.96,NNE,12,3.1,3.1,21,0.00,,CLR,0.00,VWS V14.01,2013-02-07 03:37:00,
2013-02-06 22:42:00,41.7,4.7,29.96,NNE,12,2.7,2.7,21,0.00,,CLR,0.00,VWS V14.01,2013-02-07 03:42:00,
2013-02-06 22:47:00,41.7,4.7,29.96,North,11,2.7,2.7,21,0.00,,CLR,0.00,VWS V14.01,2013-02-07 03:47:00,
2013-02-06 22:52:00,41.9,4.8,29.96,North,11,2.7,2.7,21,0.00,,CLR,0.00,VWS V14.01,2013-02-07 03:52:00,
2013-02-06 22:57:00,42.1,5.0,29.96,North,11,2.7,2.7,21,0.00,,CLR,0.00,VWS V14.01,2013-02-07 03:57:00,
2013-02-06 23:02:00,42.1,5.0,29.96,North,11,0.0,0.0,21,0.00,,CLR,0.00,VWS V14.01,2013-02-07 04:02:00,
2013-02-06 23:08:00,42.1,5.0,29.96,North,11,2.2,2.2,21,0.00,,CLR,0.00,VWS V14.01,2013-02-07 04:08:00,
2013-02-06 23:13:00,42.3,5.1,29.96,North,11,0.0,0.0,21,0.00,,CLR,0.00,VWS V14.01,2013-02-07 04:13:00,
2013-02-06 23:18:00,42.4,5.3,29.96,North,11,0.0,0.0,21,0.00,,CLR,0.00,VWS V14.01,2013-02-07 04:18:00,
2013-02-06 23:23:00,42.4,5.3,29.96,North,11,0.0,0.0,21,0.00,,CLR,0.00,VWS V14.01,2013-02-07 04:23:00,
2013-02-06 23:28:00,42.4,5.3,29.96,North,11,0.0,0.0,21,0.00,,CLR,0.00,VWS V14.01,2013-02-07 04:28:00,
2013-02-06 23:33:00,42.3,5.1,29.96,North,11,0.0,0.0,21,0.00,,CLR,0.00,VWS V14.01,2013-02-07 04:33:00,
2013-02-06 23:38:00,42.3,5.1,29.96,North,11,0.0,0.0,21,0.00,,CLR,0.00,VWS V14.01,2013-02-07 04:38:00,
2013-02-06 23:43:00,41.9,4.8,29.96,North,11,0.0,0.0,21,0.00,,CLR,0.00,VWS V14.01,2013-02-07 04:43:00,
2013-02-06 23:48:00,41.9,4.8,29.96,North,11,0.0,0.0,21,0.00,,CLR,0.00,VWS V14.01,2013-02-07 04:48:00,
2013-02-06 23:54:00,41.7,4.7,29.96,North,11,0.0,0.0,21,0.00,,CLR,0.00,VWS V14.01,2013-02-07 04:54:00,
2013-02-06 23:59:00,41.7,4.7,29.96,North,11,0.0,0.0,21,0.00,,CLR,0.00,VWS V14.01,2013-02-07 04:59:00,